Location: Standeford and Andreas Observatories
(44.1397°N, 93.9969°W)
Time: 10:22:29
(UTC-05:00)

Cosmos 1500 Rocket - Visible Passes

Search period start: 28 September 2016 00:00
Search period end: 08 October 2016 00:00
Orbit: 603 x 632 km, 82.5° (Epoch: 28 September)

Date Brightness Start Highest point End Pass type
(mag) Time Alt. Az. Time Alt. Az. Time Alt. Az.
28 Sep 4.7 19:49:53 10° NNE 19:53:34 25° ENE 19:57:01 11° SE visible
28 Sep 5.3 21:27:30 10° NNW 21:31:25 31° W 21:34:12 16° SW visible
29 Sep 3.9 20:06:25 10° N 20:10:40 43° ENE 20:14:49 11° SSE visible
29 Sep 6.2 21:45:10 10° NW 21:48:09 18° W 21:51:08 10° SW visible
30 Sep 3.5 20:23:13 10° N 20:27:41 80° E 20:32:08 10° S visible
01 Oct 4.2 20:40:15 10° NNW 20:44:36 56° W 20:48:57 10° S visible
02 Oct 4.6 19:19:53 10° NNE 19:23:36 25° ENE 19:27:18 10° SE visible
02 Oct 5.4 20:57:31 10° NNW 21:01:26 31° W 21:05:20 10° SSW visible
03 Oct 3.9 19:36:26 10° N 19:40:42 44° ENE 19:44:58 10° SSE visible
03 Oct 6.4 21:15:12 10° NW 21:18:10 18° W 21:21:08 10° SW visible
04 Oct 3.5 19:53:14 10° N 19:57:42 81° E 20:02:11 10° S visible
05 Oct 4.3 20:10:16 10° NNW 20:14:38 55° W 20:18:59 10° S visible
06 Oct 5.6 20:27:33 10° NNW 20:31:27 30° W 20:35:21 10° SSW visible
07 Oct 3.9 19:06:26 10° N 19:10:44 45° ENE 19:15:01 10° SSE visible
07 Oct 6.5 20:45:15 10° NW 20:48:11 18° W 20:51:08 10° SW visible
